Location: Unspecified
(0.0000°N, 0.0000°E)
Time: 17:21:06
(UTC+00:00)

Vanguard 2 - All Passes

Search period start: 16 April 2021 00:00
Search period end: 26 April 2021 00:00
Orbit: 552 x 2938 km, 32.9° (Epoch: 16 April)

Date Brightness Start Highest point End Pass type
(mag) Time Alt. Az. Time Alt. Az. Time Alt. Az.
16 Apr - 06:32:45 10° SSW 06:44:18 25° SSE 06:57:35 10° ESE daylight
16 Apr - 08:41:42 10° SW 08:58:35 60° SE 09:14:55 10° ENE daylight
16 Apr - 10:54:00 10° WSW 11:11:48 64° NW 11:25:40 10° NE daylight
16 Apr - 13:12:51 10° W 13:24:03 23° NW 13:32:37 10° NNE daylight
16 Apr - 22:06:47 10° WNW 22:10:42 77° SW 22:15:28 10° SE night (unlit)
17 Apr - 00:17:59 10° SW 00:20:08 12° SSW 00:22:36 10° S night (unlit)
17 Apr - 04:44:14 10° S 04:47:57 11° SSE 04:52:02 10° SE visible
17 Apr - 06:50:00 10° SSW 07:02:54 32° SSE 07:17:48 10° E daylight
17 Apr - 08:59:22 10° SW 09:16:44 74° SE 09:33:15 10° ENE daylight
17 Apr - 11:12:45 10° WSW 11:29:46 50° NW 11:43:07 10° NE daylight
17 Apr - 13:34:01 10° WNW 13:42:27 17° NNW 13:49:17 10° N daylight
17 Apr - 20:17:29 10° NNW 20:20:19 17° NNE 20:23:01 10° ENE visible
17 Apr - 22:24:48 10° W 22:28:30 37° SSW 22:33:00 10° SE night (unlit)
18 Apr - 05:00:37 10° S 05:07:04 15° SSE 05:14:36 10° SE visible
18 Apr - 07:07:17 10° SSW 07:21:17 41° SE 07:37:25 10° E daylight
18 Apr - 09:17:13 10° SW 09:34:48 90° WNW 09:51:17 10° NE daylight
18 Apr - 11:31:58 10° W 11:47:51 39° NW 12:00:25 10° NNE daylight
18 Apr - 13:56:20 10° NW 14:01:08 12° NNW 14:05:20 10° N daylight
18 Apr - 20:34:20 10° NNW 20:38:10 33° NNE 20:41:48 10° E visible
18 Apr - 22:43:24 10° WSW 22:46:28 20° SSW 22:50:03 10° SSE night (unlit)
19 Apr - 05:17:24 10° SSW 05:25:54 19° SSE 05:36:16 10° ESE visible
19 Apr - 07:24:40 10° SW 07:39:29 52° SE 07:56:30 10° ENE daylight
19 Apr - 09:35:19 10° WSW 09:52:51 74° NW 10:09:05 10° NE daylight
19 Apr - 11:51:43 10° W 12:06:04 31° NNW 12:17:36 10° NNE daylight
19 Apr - 20:51:45 10° NW 20:55:56 72° NE 20:59:56 10° ESE visible
19 Apr - 23:03:14 10° SW 23:04:34 11° SSW 23:05:59 10° S night (unlit)
20 Apr - 05:34:21 10° SSW 05:44:27 25° SSE 05:57:10 10° E visible
20 Apr - 07:42:10 10° SW 07:57:34 65° SE 08:15:10 10° ENE daylight
20 Apr - 09:53:44 10° WSW 10:10:55 60° NW 10:26:41 10° NE daylight
20 Apr - 12:12:06 10° WNW 12:24:31 24° NNW 12:34:42 10° NNE daylight
20 Apr - 19:01:59 10° NNW 19:05:04 15° NNE 19:07:42 10° ENE visible
20 Apr - 21:09:36 10° WNW 21:13:38 52° SW 21:17:36 10° SE visible
21 Apr - 05:51:25 10° SSW 06:02:45 33° SE 06:17:23 10° E daylight
21 Apr - 07:59:50 10° SW 08:15:36 80° SE 08:33:28 10° ENE daylight
21 Apr - 10:12:30 10° WSW 10:29:05 48° NW 10:44:10 10° NE daylight
21 Apr - 12:33:10 10° WNW 12:43:15 18° NNW 12:51:42 10° NNE daylight
21 Apr - 19:18:42 10° NNW 19:23:08 27° NNE 19:26:42 10° E visible
21 Apr - 21:28:00 10° W 21:31:24 25° SSW 21:34:48 10° SSE night (unlit)
22 Apr - 04:03:51 10° S 04:08:14 13° SSE 04:13:16 10° SE visible
22 Apr - 06:08:36 10° SSW 06:20:51 42° SE 06:36:57 10° ENE daylight
22 Apr - 08:17:42 10° WSW 08:33:38 84° NW 08:51:29 10° NE daylight
22 Apr - 10:31:44 10° W 10:47:23 38° NNW 11:01:31 10° NNE daylight
22 Apr - 12:54:55 10° NW 13:02:16 14° NNW 13:08:38 10° N daylight
22 Apr - 17:29:40 10° N 17:31:03 11° NNE 17:32:21 10° NNE daylight
22 Apr - 19:36:00 10° NW 19:41:05 51° NNE 19:44:59 10° ESE visible
22 Apr - 21:47:18 10° WSW 21:49:14 13° SSW 21:51:11 10° S night (unlit)
23 Apr - 04:19:53 10° S 04:26:44 18° SSE 04:35:22 10° ESE visible
23 Apr - 06:25:56 10° SW 06:38:49 55° SE 06:55:59 10° ENE daylight
23 Apr - 08:35:49 10° WSW 08:51:44 68° NW 09:09:17 10° NE daylight
23 Apr - 10:51:30 10° W 11:05:55 30° NNW 11:18:51 10° NNE daylight
23 Apr - 13:17:13 10° NNW 13:21:31 11° NNW 13:25:25 10° N daylight
23 Apr - 17:45:13 10° NNW 17:49:31 17° NNE 17:52:55 10° ENE daylight
23 Apr - 19:53:43 10° WNW 19:58:50 79° SW 20:02:49 10° SE visible
24 Apr - 04:36:32 10° SSW 04:44:59 24° SE 04:56:19 10° E visible
24 Apr - 06:43:24 10° SW 06:56:44 69° SE 07:14:36 10° ENE daylight
24 Apr - 08:54:15 10° WSW 09:09:56 55° NW 09:26:54 10° NE daylight
24 Apr - 11:11:51 10° WNW 11:24:41 24° NNW 11:36:08 10° NNE daylight
24 Apr - 18:02:01 10° NNW 18:07:49 26° NNE 18:11:57 10° E daylight
24 Apr - 20:11:53 10° WNW 20:16:30 38° SW 20:20:15 10° SSE visible
25 Apr - 04:53:26 10° SSW 05:02:59 33° SE 05:16:27 10° E visible
25 Apr - 07:01:04 10° SW 07:14:42 86° SE 07:32:53 10° NE daylight
25 Apr - 09:13:03 10° W 09:28:17 44° NNW 09:44:25 10° NE daylight
25 Apr - 11:32:47 10° WNW 11:43:44 19° NNW 11:53:30 10° NNE daylight
25 Apr - 16:10:39 10° NNW 16:14:54 13° NNE 16:18:24 10° NE daylight
25 Apr - 18:19:18 10° NW 18:25:55 43° NNE 18:30:22 10° ESE visible
25 Apr - 20:30:40 10° W 20:34:08 20° SW 20:37:09 10° SSE visible
